Regional Weather Roundup
Issued by NWS Grand Forks, ND

Home | Current Version | Previous Version | Text Only | Print | Product List | Glossary On
Versions: 1 2 3 4 5 6 7 8 9 10 11 12 13 14 15 16 17 18 19 20 21 22 23 24 25 26 27 28 29 30 31 32 33 34 35 36 37 38 39 40 41 42 43 44 45 46 47 48 49 50
000
ASUS43 KFGF 011631
RWRFGF
PRAIRIE TO PINES  WEATHER ROUNDUP
NATIONAL WEATHER SERVICE EASTERN NORTH DAKOTA/GRAND FORKS ND
1100 AM CDT SAT AUG 01 2015

 **SATELLITE DATA USED TO AUGMENT SKY COVER AT AUTOMATED STATIONS**
 *****  WEATHER ACROSS EASTERN NORTH DAKOTA  *****

CITY           SKY/WX    TMP DP  RH WIND       PRES   REMARKS
GRAND FORKS    MOSUNNY   78  53  41 SW9       29.88F
GRAND FRKS AFB SUNNY     78  54  42 S9        29.89F
GRAND FRKS NWS   N/A     77 N/A N/A S3          N/A
DEVILS LAKE    SUNNY     77  54  44 S9        29.88F
FARGO          SUNNY     78  51  38 VRB5      29.92F
WAHPETON ARPT  SUNNY     79  54  41 SE8       29.94F
$$

 ***** WEATHER ACROSS CENTRAL AND WESTERN NORTH DAKOTA  *****

CITY           SKY/WX    TMP DP  RH WIND       PRES   REMARKS
BISMARCK       SUNNY     80  59  48 S5        29.88S
MINOT          SUNNY     77  53  43 SE6       29.88F
JAMESTOWN      SUNNY     77  60  55 SE12      29.90F
MINOT AFB      SUNNY     77  56  47 SE9       29.87F
GARRISON         N/A     76  57  51 E8        29.89F
WILLISTON      SUNNY     77  57  50 SW6       29.90F
DICKINSON      SUNNY     79  53  40 N8        29.92F
HETTINGER      SUNNY     85  48  27 NW15      29.95S
$$

 *****  OTHER AIRPORT OBSERVATIONS IN OUR AREA  *****

CITY           SKY/WX    TMP DP  RH WIND       PRES   REMARKS
WALHALLA       FAIR      77  54  44 MISG      29.87S
GRAFTON AIRPOR FAIR      77  54  44 VRB6      29.88F
VALLEY CITY AR FAIR      77  59  53 SE10      29.91F
CANDO          FAIR      75  55  50 S10       29.88F
CAVALIER APRT  FAIR      77  54  44 SW6       29.87S
GWINNER        FAIR      79  63  57 SE13      29.92F
ROLLA            N/A     73  57  56 SW12G17   29.90F
 ***** THE ABOVE OBSERVATIONS ARE NON NWS ARE NOT QUALITY
       CONTROLLED AND MAY MIS-REPORT RAIN FOR SNOW...
$$

  *****  WEATHER ACROSS NORTHERN MINNESOTA  *****

CITY           SKY/WX    TMP DP  RH WIND       PRES   REMARKS
FLAG ISLAND    SUNNY     75  46  35 W14       29.83F
WARROAD        SUNNY     73  59  60 W9        29.88S
ROSEAU         SUNNY     75  57  53 W6        29.88S
HALLOCK        SUNNY     77  54  44 SW6       29.87F
THF RVR FALLS  SUNNY     75  55  50 SW6       29.90F
BAUDETTE       SUNNY     75  51  43 W12       29.87F
WASKISH        SUNNY     73  61  64 SW10      29.90S
CROOKSTON      SUNNY     75  57  53 S7        29.91S
STEPHEN NDAWN    N/A     75  55  50 SW7         N/A
GREENBUSH NDAW   N/A     75  57  53 SW7         N/A
$$
  *****  WEATHER ACROSS CENTRAL AND WEST MINNESOTA  *****

CITY           SKY/WX    TMP DP  RH WIND       PRES   REMARKS
FOSSTON        SUNNY     75  55  50 S7        29.93F
BEMIDJI        SUNNY     75  51  43 W10G16    29.93S
PARK RAPIDS    SUNNY     77  53  43 VRB7      29.96S
ELBOW LAKE     FAIR      77  57  49 S3        29.96F
WADENA         SUNNY     79  52  38 W8        29.96S
DETROIT LAKES  SUNNY     77  50  38 W5        29.97S
MOORHEAD       SUNNY     75  59  57 SE3       29.93F
FERGUS FALLS   SUNNY     77  57  50 S5        29.94F
MORRIS MN      SUNNY     79  61  53 SE5       29.96S
STAPLES        SUNNY     77  52  41 W7        29.97S
$$
  *****  WEATHER ELSEWHERE ACROSS MINNESOTA  *****

CITY           SKY/WX    TMP DP  RH WIND       PRES   REMARKS
DULUTH         MOSUNNY   76  51  41 W13       29.92S
INTRNTL FALLS  SUNNY     74  53  48 W13       29.87F
ELY            MOSUNNY   72  50  46 W8G20     29.89S
CLOQUET        SUNNY     75  46  35 W12G18    29.93S
WHEATON        MOSUNNY   73  63  68 SE8       29.96F
BRAINERD       SUNNY     76  53  44 VRB3      29.96F
HIBBING        SUNNY     75  51  43 NW14G20   29.92F
ALEXANDRIA     SUNNY     77  53  43 SW5       29.99F
SAINT CLOUD    SUNNY     79  54  41 VRB6      29.97S
MINNEAPOLIS    MOSUNNY   79  57  46 CALM      29.97S
$$

  *****  WEATHER ACROSS SOUTH DAKOTA  *****

CITY           SKY/WX    TMP DP  RH WIND       PRES   REMARKS
SIOUX FALLS    CLOUDY    79  67  66 SW9       30.01S
BROOKINGS      MOSUNNY   81  70  69 S13       30.00F
WATERTOWN      SUNNY     81  64  56 S8        29.96F
HURON          MOSUNNY   78  67  68 SW16      29.93F
SISSETON         N/A     76  61  59 SE10      29.93F
ABERDEEN       PTSUNNY   80  65  59 S8        29.91F
MITCHELL       PTSUNNY   78  59  51 S9G18     29.96F
PIERRE         SUNNY     83  59  44 S22G30    29.91F
MOBRIDGE       SUNNY     81  67  62 S8        29.88F
RAPID CITY     SUNNY     81  58  45 S8        30.03S
$$

  *****  SOME WEATHER IN NEARBY STATES *****

CITY           SKY/WX    TMP DP  RH WIND       PRES   REMARKS
GLASGOW MT     SUNNY     78  52  40 SE10      29.89F
GREAT FALLS MT SUNNY     82  38  20 SW12      30.03F
CHEYENNE WY    SUNNY     81  47  30 S10       30.22F
SCOTTSBLUFF NE SUNNY     80  59  48 VRB3      30.09S
OMAHA NE       CLOUDY    77  65  66 SW6       30.02F
DES MOINES IA  CLOUDY    81  67  62 SW8       30.03S
DAVENPORT IA   SUNNY     81  63  54 SW10      30.02F
CHICAGO IL     MOSUNNY   80  56  43 W14       29.99R
EAU CLAIRE WI  SUNNY     77  53  43 W3        29.96S
LA CROSSE WI   SUNNY     79  57  46 W3        29.97R
$$

  *****  SOME NATIONAL WEATHER *****

CITY           SKY/WX    TMP DP  RH WIND       PRES   REMARKS
LA GUARDIA NY  PTSUNNY   85  59  41 W13       29.80S
RALEIGH NC     MOSUNNY   87  61  41 CALM      29.97S
ATLANTA GA     PTSUNNY   80  60  50 E15G23    30.01R
NEW ORLEANS LA MOSUNNY   85  69  58 N8        29.94R
OKLAHOMA CITY  PTSUNNY   84  69  60 S10       30.10S
ALBUQUERQUE NM PTSUNNY   73  56  54 W5        30.29S
SALT LAKE CITY MOSUNNY   79  40  24 S6        30.15S
LOS ANGELES CA PTSUNNY   69  63  81 SW5       29.99S
BOISE ID       SUNNY     84  37  18 SE7       30.05R
SEATTLE WA     MOSUNNY   71  49  45 W5        30.04S
$$

*** WEATHER ACROSS MANITOBA...SASKATCHEWAN AND ONTARIO ***
                ***ONTARIO***

CITY           SKY/WX    TMP DP  RH WIND       PRES   REMARKS
GERALDTON      MOSUNNY   68  55  64 W10G18    29.73F
THUNDER BAY    PTSUNNY   73  55  53 W13G20    29.81F
SIOUX LOOKOUT  PTSUNNY   70  54  56 W13G20    29.79S
TORONTO        MOSUNNY   75  54  46 NW15G24   29.85S
BIG TROUT LK   MOSUNNY   66  52  59 W15G22    29.52F
PICKLE LAKE    PTSUNNY   68  50  52 W15G28    29.67F
DRYDEN         SUNNY     72  54  53 W12G21    29.81F
KENORA         MOSUNNY   73  55  53 SW10      29.83F
$$
                *** MANITOBA***

CITY           SKY/WX    TMP DP  RH WIND       PRES   REMARKS
BRANDON        MOSUNNY   73  59  60 W8        29.87F
DAUPHIN        MOSUNNY   70  57  64 NE7       29.85F
ISLAND LAKE    PTSUNNY   66  52  59 W16G23    29.65F
PILOT MOUND      N/A     73  54  49 SW7         N/A
THE PAS        MOSUNNY   66  55  68 NW9       29.79F
THOMPSON       MOSUNNY   64  46  52 NW14G25   29.66F
WINNIPEG       MOSUNNY   73  55  53 W13       29.85F
LYNN LAKE      SUNNY     63  43  48 N10G28    29.76S
CHURCHILL      DRIZZLE   48  45  87 N26G36    29.45S FOG
$$
                ***SASKATCHEWAN***

CITY           SKY/WX    TMP DP  RH WIND       PRES   REMARKS
ESTEVAN        MOSUNNY   79  55  44 S9        29.89
KINDERSLEY     PTSUNNY   73  57  56 NE8       29.90R
LLOYDMINSTER   LGT RAIN  59  55  88 NW14      29.96R
PRINCE ALBERT  MOSUNNY   64  59  82 VRB2      29.88R
REGINA         MOSUNNY   79  57  47 VRB2      29.87F
YORKTON        MOSUNNY   66  55  68 SW9       29.83F
N. BATTLEFORD  MOSUNNY   66  57  72 NW3       29.91F
LA RONGE       PTSUNNY   64  54  68 E5        29.86S
SASKATOON      PTSUNNY   68  57  68 NW7       29.89S
SWIFT CURRENT  SUNNY     75  50  41 W13       29.85S
$$
NOTE: THESE ARE AUTOMATED STATIONS WITH LIMITED QUALITY CONTROL
      "FAIR" INDICATES FEW OR NO CLOUDS BELOW 12,000 FEET WITH NO
      SIGNIFICANT WEATHER AND/OR OBSTRUCTIONS TO VISIBILITY.
      SKY/WX - SKY CONDITION AND SIGNIFICANT WEATHER.
      TMP - AIR TEMPERATURE.    DP   - DEWPOINT TEMPERATURE.
      RH  - RELATIVE HUMIDITY.  PRES - PRESSURE.
      HX  - HEAT INDEX.         WCI  - WIND CHILL INDEX.
$


USA.gov is the U.S. government's official web portal to all federal, state and local government web resources and services.